Time,TemperatureF,DewpointF,PressureIn,WindDirection,WindDirectionDegrees,WindSpeedMPH,WindSpeedGustMPH,Humidity,HourlyPrecipIn,Conditions,Clouds,dailyrainin,SoftwareType,DateUTC
2013-07-02 00:14:00,72.1,49.6,29.95,NNE,22,2.7,-999.0,45,-99.99,,,0.00,Acu-Link.com,2013-07-02 05:14:00,
2013-07-02 00:29:00,71.8,49.9,29.95,NE,45,3.2,-999.0,46,-99.99,,,0.00,Acu-Link.com,2013-07-02 05:29:00,
2013-07-02 00:45:00,71.6,50.3,29.95,North,0,3.2,-999.0,47,-99.99,,,0.00,Acu-Link.com,2013-07-02 05:45:00,
2013-07-02 01:01:00,70.7,50.0,29.95,NE,45,2.2,-999.0,48,-99.99,,,0.00,Acu-Link.com,2013-07-02 06:01:00,
2013-07-02 01:16:00,69.4,49.9,29.95,NE,45,2.2,-999.0,50,-99.99,,,0.00,Acu-Link.com,2013-07-02 06:16:00,
2013-07-02 01:32:00,68.7,49.8,29.95,NE,45,1.7,-999.0,51,-99.99,,,0.00,Acu-Link.com,2013-07-02 06:32:00,
2013-07-02 01:47:00,68.4,50.1,29.95,NE,45,1.7,-999.0,52,-99.99,,,0.00,Acu-Link.com,2013-07-02 06:47:00,
2013-07-02 02:02:00,68.2,50.4,29.95,NE,45,4.2,-999.0,53,-99.99,,,0.00,Acu-Link.com,2013-07-02 07:02:00,
2013-07-02 02:17:00,69.4,50.5,29.95,North,0,3.2,-999.0,51,-99.99,,,0.00,Acu-Link.com,2013-07-02 07:17:00,
2013-07-02 02:33:00,69.6,50.1,29.95,NE,45,3.2,-999.0,50,-99.99,,,0.00,Acu-Link.com,2013-07-02 07:33:00,
2013-07-02 02:48:00,69.1,49.7,29.95,NE,45,2.7,-999.0,50,-99.99,,,0.00,Acu-Link.com,2013-07-02 07:48:00,
2013-07-02 03:05:00,68.9,49.5,29.95,NE,45,2.7,-999.0,50,-99.99,,,0.00,Acu-Link.com,2013-07-02 08:05:00,
2013-07-02 03:20:00,68.9,49.5,29.95,NE,45,2.2,-999.0,50,-99.99,,,0.00,Acu-Link.com,2013-07-02 08:20:00,
2013-07-02 03:35:00,68.7,49.3,29.95,NNE,22,2.2,-999.0,50,-99.99,,,0.00,Acu-Link.com,2013-07-02 08:35:00,
2013-07-02 03:51:00,68.5,49.1,29.95,NNE,22,0.0,-999.0,50,-99.99,,,0.00,Acu-Link.com,2013-07-02 08:51:00,
2013-07-02 04:07:00,68.0,49.2,29.96,NNE,22,2.2,-999.0,51,-99.99,,,0.00,Acu-Link.com,2013-07-02 09:07:00,
2013-07-02 04:22:00,67.5,49.2,29.95,NE,45,1.7,-999.0,52,-99.99,,,0.00,Acu-Link.com,2013-07-02 09:22:00,
2013-07-02 04:37:00,66.9,49.2,29.96,NNE,22,1.7,-999.0,53,-99.99,,,0.00,Acu-Link.com,2013-07-02 09:37:00,
2013-07-02 04:53:00,66.0,48.9,29.96,NNE,22,1.1,-999.0,54,-99.99,,,0.00,Acu-Link.com,2013-07-02 09:53:00,
2013-07-02 05:08:00,64.2,49.1,29.96,NNE,22,0.0,-999.0,58,-99.99,,,0.00,Acu-Link.com,2013-07-02 10:08:00,
2013-07-02 05:23:00,63.0,49.3,29.96,NNE,22,0.0,-999.0,61,-99.99,,,0.00,Acu-Link.com,2013-07-02 10:23:00,
2013-07-02 05:39:00,61.2,49.3,29.96,NNE,22,0.0,-999.0,65,-99.99,,,0.00,Acu-Link.com,2013-07-02 10:39:00,
2013-07-02 05:54:00,60.6,49.2,29.97,NNE,22,0.0,-999.0,66,-99.99,,,0.00,Acu-Link.com,2013-07-02 10:54:00,
2013-07-02 06:09:00,59.4,49.2,29.97,NNE,22,0.0,-999.0,69,-99.99,,,0.00,Acu-Link.com,2013-07-02 11:09:00,
2013-07-02 06:25:00,59.5,49.3,29.97,WNW,292,0.0,-999.0,69,-99.99,,,0.00,Acu-Link.com,2013-07-02 11:25:00,
2013-07-02 06:40:00,59.2,49.0,29.98,WNW,292,2.2,-999.0,69,-99.99,,,0.00,Acu-Link.com,2013-07-02 11:40:00,
2013-07-02 06:55:00,60.1,49.5,29.98,NNW,337,4.7,-999.0,68,-99.99,,,0.00,Acu-Link.com,2013-07-02 11:55:00,
2013-07-02 07:10:00,61.7,49.4,29.99,West,270,1.7,-999.0,64,-99.99,,,0.00,Acu-Link.com,2013-07-02 12:10:00,
2013-07-02 07:26:00,62.6,49.4,29.99,NW,315,3.7,-999.0,62,-99.99,,,0.00,Acu-Link.com,2013-07-02 12:26:00,
2013-07-02 07:41:00,63.5,49.8,29.99,NNE,22,2.2,-999.0,61,-99.99,,,0.00,Acu-Link.com,2013-07-02 12:41:00,
2013-07-02 07:56:00,64.4,50.2,29.99,West,270,2.7,-999.0,60,-99.99,,,0.00,Acu-Link.com,2013-07-02 12:56:00,
2013-07-02 08:12:00,66.2,50.5,29.99,NNE,22,2.2,-999.0,57,-99.99,,,0.00,Acu-Link.com,2013-07-02 13:12:00,
2013-07-02 08:27:00,68.4,50.6,29.99,NE,45,2.7,-999.0,53,-99.99,,,0.00,Acu-Link.com,2013-07-02 13:27:00,
2013-07-02 08:42:00,72.7,51.3,30.00,NNW,337,2.7,-999.0,47,-99.99,,,0.00,Acu-Link.com,2013-07-02 13:42:00,
2013-07-02 08:58:00,76.1,51.3,30.00,NE,45,3.2,-999.0,42,-99.99,,,0.00,Acu-Link.com,2013-07-02 13:58:00,
2013-07-02 09:13:00,79.5,51.6,30.00,North,0,7.8,-999.0,38,-99.99,,,0.00,Acu-Link.com,2013-07-02 14:13:00,
2013-07-02 09:28:00,80.4,50.2,30.00,NW,315,4.7,-999.0,35,-99.99,,,0.00,Acu-Link.com,2013-07-02 14:28:00,
2013-07-02 09:43:00,82.0,49.2,30.00,East,90,4.7,-999.0,32,-99.99,,,0.00,Acu-Link.com,2013-07-02 14:43:00,
2013-07-02 09:59:00,82.9,48.3,30.01,North,0,4.2,-999.0,30,-99.99,,,0.00,Acu-Link.com,2013-07-02 14:59:00,
2013-07-02 10:14:00,84.0,49.2,30.00,NNE,22,7.3,-999.0,30,-99.99,,,0.00,Acu-Link.com,2013-07-02 15:14:00,
2013-07-02 10:29:00,83.5,47.9,30.00,NE,45,6.3,-999.0,29,-99.99,,,0.00,Acu-Link.com,2013-07-02 15:29:00,
2013-07-02 10:44:00,83.5,47.9,30.01,NE,45,5.3,-999.0,29,-99.99,,,0.00,Acu-Link.com,2013-07-02 15:44:00,
2013-07-02 10:59:00,84.9,49.1,30.00,ESE,112,5.8,-999.0,29,-99.99,,,0.00,Acu-Link.com,2013-07-02 15:59:00,
2013-07-02 11:14:00,84.4,48.6,30.00,NE,45,5.3,-999.0,29,-99.99,,,0.00,Acu-Link.com,2013-07-02 16:14:00,
2013-07-02 11:30:00,84.6,48.8,30.00,NNE,22,5.3,-999.0,29,-99.99,,,0.00,Acu-Link.com,2013-07-02 16:30:00,
2013-07-02 11:45:00,84.6,47.9,29.99,NNW,337,11.4,-999.0,28,-99.99,,,0.00,Acu-Link.com,2013-07-02 16:45:00,
2013-07-02 12:01:00,84.4,48.6,29.99,South,180,5.3,-999.0,29,-99.99,,,0.00,Acu-Link.com,2013-07-02 17:01:00,
2013-07-02 12:16:00,86.5,48.5,29.99,NNE,22,6.3,-999.0,27,-99.99,,,0.00,Acu-Link.com,2013-07-02 17:16:00,
2013-07-02 12:31:00,87.1,48.0,29.98,North,0,8.3,-999.0,26,-99.99,,,0.00,Acu-Link.com,2013-07-02 17:31:00,
2013-07-02 12:47:00,87.1,48.0,29.98,NE,45,5.8,-999.0,26,-99.99,,,0.00,Acu-Link.com,2013-07-02 17:47:00,
2013-07-02 13:02:00,88.9,48.5,29.97,NNE,22,5.8,-999.0,25,-99.99,,,0.00,Acu-Link.com,2013-07-02 18:02:00,
2013-07-02 13:18:00,88.9,46.3,29.97,East,90,4.2,-999.0,23,-99.99,,,0.00,Acu-Link.com,2013-07-02 18:18:00,
2013-07-02 13:33:00,88.5,48.2,29.96,NNW,337,8.9,-999.0,25,-99.99,,,0.00,Acu-Link.com,2013-07-02 18:33:00,
2013-07-02 13:48:00,88.3,48.0,29.96,NE,45,8.3,-999.0,25,-99.99,,,0.00,Acu-Link.com,2013-07-02 18:48:00,
2013-07-02 14:03:00,89.6,46.9,29.94,NNW,337,7.8,-999.0,23,-99.99,,,0.00,Acu-Link.com,2013-07-02 19:03:00,
2013-07-02 14:19:00,88.9,46.3,29.93,ESE,112,2.7,-999.0,23,-99.99,,,0.00,Acu-Link.com,2013-07-02 19:19:00,
2013-07-02 14:35:00,89.8,45.8,29.94,NE,45,4.7,-999.0,22,-99.99,,,0.00,Acu-Link.com,2013-07-02 19:35:00,
2013-07-02 14:50:00,90.9,45.5,29.93,South,180,4.7,-999.0,21,-99.99,,,0.00,Acu-Link.com,2013-07-02 19:50:00,
2013-07-02 15:06:00,90.0,44.8,29.92,ENE,67,6.8,-999.0,21,-99.99,,,0.00,Acu-Link.com,2013-07-02 20:06:00,
2013-07-02 15:21:00,92.3,45.4,29.91,NE,45,6.3,-999.0,20,-99.99,,,0.00,Acu-Link.com,2013-07-02 20:21:00,
2013-07-02 15:36:00,90.9,45.5,29.91,ENE,67,5.8,-999.0,21,-99.99,,,0.00,Acu-Link.com,2013-07-02 20:36:00,
2013-07-02 15:51:00,91.0,45.6,29.91,NNE,22,7.8,-999.0,21,-99.99,,,0.00,Acu-Link.com,2013-07-02 20:51:00,
2013-07-02 16:07:00,92.1,45.2,29.91,NNE,22,5.3,-999.0,20,-99.99,,,0.00,Acu-Link.com,2013-07-02 21:07:00,
2013-07-02 16:22:00,91.6,44.8,29.90,NE,45,5.8,-999.0,20,-99.99,,,0.00,Acu-Link.com,2013-07-02 21:22:00,
2013-07-02 16:37:00,92.3,45.4,29.90,SW,225,9.4,-999.0,20,-99.99,,,0.00,Acu-Link.com,2013-07-02 21:37:00,
2013-07-02 16:52:00,91.4,44.7,29.89,NNE,22,6.3,-999.0,20,-99.99,,,0.00,Acu-Link.com,2013-07-02 21:52:00,
2013-07-02 17:07:00,92.3,44.0,29.89,NE,45,4.7,-999.0,19,-99.99,,,0.00,Acu-Link.com,2013-07-02 22:07:00,
2013-07-02 17:23:00,92.8,43.0,29.88,ENE,67,4.2,-999.0,18,-99.99,,,0.00,Acu-Link.com,2013-07-02 22:23:00,
2013-07-02 17:38:00,92.8,43.0,29.87,NE,45,8.3,-999.0,18,-99.99,,,0.00,Acu-Link.com,2013-07-02 22:38:00,
2013-07-02 17:53:00,93.2,43.4,29.87,NNE,22,3.7,-999.0,18,-99.99,,,0.00,Acu-Link.com,2013-07-02 22:53:00,
2013-07-02 18:08:00,92.3,42.6,29.86,East,90,4.2,-999.0,18,-99.99,,,0.00,Acu-Link.com,2013-07-02 23:08:00,
2013-07-02 18:23:00,92.1,42.5,29.87,NNW,337,4.2,-999.0,18,-99.99,,,0.00,Acu-Link.com,2013-07-02 23:23:00,
2013-07-02 18:39:00,90.7,41.3,29.86,ESE,112,4.2,-999.0,18,-99.99,,,0.00,Acu-Link.com,2013-07-02 23:39:00,
2013-07-02 18:55:00,89.8,42.0,29.86,East,90,3.7,-999.0,19,-99.99,,,0.00,Acu-Link.com,2013-07-02 23:55:00,
2013-07-02 19:10:00,90.5,41.2,29.87,ESE,112,3.7,-999.0,18,-99.99,,,0.00,Acu-Link.com,2013-07-03 00:10:00,
2013-07-02 19:25:00,89.2,40.1,29.86,East,90,2.7,-999.0,18,-99.99,,,0.00,Acu-Link.com,2013-07-03 00:25:00,
2013-07-02 19:40:00,88.3,40.8,29.87,NNE,22,5.8,-999.0,19,-99.99,,,0.00,Acu-Link.com,2013-07-03 00:40:00,
2013-07-02 19:55:00,86.9,39.6,29.88,ENE,67,6.8,-999.0,19,-99.99,,,0.00,Acu-Link.com,2013-07-03 00:55:00,
2013-07-02 20:11:00,85.6,41.2,29.87,NE,45,6.8,-999.0,21,-99.99,,,0.00,Acu-Link.com,2013-07-03 01:11:00,
2013-07-02 20:26:00,83.8,42.0,29.87,East,90,2.7,-999.0,23,-99.99,,,0.00,Acu-Link.com,2013-07-03 01:26:00,
2013-07-02 20:41:00,82.2,41.8,29.88,East,90,1.7,-999.0,24,-99.99,,,0.00,Acu-Link.com,2013-07-03 01:41:00,
2013-07-02 20:57:00,80.6,41.5,29.89,ENE,67,2.2,-999.0,25,-99.99,,,0.00,Acu-Link.com,2013-07-03 01:57:00,
2013-07-02 21:12:00,79.2,41.3,29.89,NE,45,0.0,-999.0,26,-99.99,,,0.00,Acu-Link.com,2013-07-03 02:12:00,
2013-07-02 21:57:00,76.1,43.3,29.91,ENE,67,2.7,-999.0,31,-99.99,,,0.00,Acu-Link.com,2013-07-03 02:57:00,
2013-07-02 22:13:00,76.1,44.1,29.91,ENE,67,3.7,-999.0,32,-99.99,,,0.00,Acu-Link.com,2013-07-03 03:13:00,
2013-07-02 22:28:00,75.4,44.3,29.92,East,90,3.2,-999.0,33,-99.99,,,0.00,Acu-Link.com,2013-07-03 03:28:00,
2013-07-02 22:44:00,75.0,44.7,29.94,NE,45,1.7,-999.0,34,-99.99,,,0.00,Acu-Link.com,2013-07-03 03:44:00,
2013-07-02 23:14:00,73.8,45.2,29.94,ENE,67,2.7,-999.0,36,-99.99,,,0.00,Acu-Link.com,2013-07-03 04:14:00,
2013-07-02 23:29:00,72.9,45.1,29.95,East,90,2.7,-999.0,37,-99.99,,,0.00,Acu-Link.com,2013-07-03 04:29:00,
2013-07-02 23:45:00,72.1,45.1,29.95,East,90,2.7,-999.0,38,-99.99,,,0.00,Acu-Link.com,2013-07-03 04:45:00,